Regional Weather Roundup
Issued by NWS

Home | Current Version | Previous Version | Text Only | Print | Product List | Glossary On
Versions: 1 2 3 4 5 6 7 8 9 10 11 12 13 14 15 16 17 18 19 20 21 22 23 24 25 26 27 28 29 30 31 32 33 34 35 36 37 38 39 40 41 42 43 44 45 46 47 48 49 50
921
ASUS44 KLUB 211510
RWRLUB
WEST TEXAS WEATHER ROUNDUP
NATIONAL WEATHER SERVICE LUBBOCK TX
1000 AM CDT TUE MAY 21 2019

NOTE: "FAIR" INDICATES FEW OR NO CLOUDS BELOW 12,000 FEET WITH NO
SIGNIFICANT WEATHER AND/OR OBSTRUCTIONS TO VISIBILITY.

TXZ004-006>008-010-012-014-016-OKZ002-211600-
TEXAS PANHANDLE/OKLAHOMA PANHANDLE

CITY           SKY/WX    TMP DP  RH WIND       PRES   REMARKS
AMARILLO       SUNNY     55  34  45 SW29G38   29.49S
BORGER         SUNNY     57  37  47 W20G31    29.47F
CANADIAN       SUNNY     59  46  60 SW14G23   29.46F
DALHART        MOSUNNY   52  39  61 W15       29.47F
DUMAS          SUNNY     52  40  64 SW16      29.47F
GUYMON         SUNNY     54  43  66 S20       29.38F
HEREFORD       SUNNY     57  31  37 W36G46    29.55F
PAMPA          SUNNY     57  39  50 SW20G30   29.48F
PERRYTON       SUNNY     56  46  68 SW20      29.42F
$$

TXZ026-029-035-045-048-211600-
SOUTHERN PANHANDLE/SOUTH PLAINS/ROLLING PLAINS

CITY           SKY/WX    TMP DP  RH WIND       PRES   REMARKS
CHILDRESS      SUNNY     62  40  44 W23G30    29.57F
SEMINOLE       SUNNY     61  25  24 W29G38    29.78S
LUBBOCK        SUNNY     61  26  26 W30G43    29.64S
PLAINVIEW      SUNNY     58  28  31 W37G46    29.59S
SNYDER         SUNNY     62  37  39 SW23G29   29.72S
$$

TXZ052-054-060>062-072-078-127-140-154-169-211600-
PERMIAN BASIN/CONCHO VALLEY/BIG COUNTRY/EDWARDS PLATEAU

CITY           SKY/WX    TMP DP  RH WIND       PRES   REMARKS
ABILENE        SUNNY     67  43  41 W15G22    29.71S
BRADY          PTSUNNY   68  50  52 SW8       29.77S
BROWNWOOD      CLOUDY    68  59  73 S10       29.75S
JUNCTION       SUNNY     72  47  40 NW7       29.81R
MIDLAND        SUNNY     64  33  31 W24G32    29.76F
ODESSA         SUNNY     63  29  27 W22G38    29.78S
SAN ANGELO     SUNNY     69  43  38 W15       29.77S
SONORA         SUNNY     70  34  26 W10       29.85S
SWEETWATER     SUNNY     65  39  39 SW18G25   29.75S
WINK           SUNNY     64  24  21 SW14G21   29.79R
$$

TXZ055-058-074-075-080-082-211600-
FAR WEST/SOUTHWEST MOUNTAINS/TRANS PECOS

CITY           SKY/WX    TMP DP  RH WIND       PRES   REMARKS
ALPINE         SUNNY     60  23  24 W18G31    29.95S
DRYDEN           N/A     73  31  21 SW7       29.78S
EL PASO        MOSUNNY   59  26  28 SW6       29.89R
FORT STOCKTON  SUNNY     65  27  23 W18G30    29.83F
GUADALUPE PASS SUNNY     53  24  32 W26G33    29.86R
MARFA          SUNNY     57  24  28 W26       29.94
PECOS          SUNNY     66  26  21 W26G40    29.81S
PRESIDIO       FAIR      68  26  20 W18       29.90R
$$

TXZ014-016-019-021>030-083-211600
TEXAS TECH WEST TEXAS MESONET/TEXAS PANHANDLE/NORTHERN SOUTH PLAINS

CITY           SKY/WX    TMP DP  RH WIND       PRES   REMARKS
ABERNATHY 5ENE   N/A     60  27  28 W37G48    29.63S
AMARILLO 9NNE    N/A     57  37  47 SW18G29   29.50S
AMARILLO 7SSE    N/A     56  34  42 W31       29.52S
AMHERST 1NE      N/A     59  27  28 SW36G46   29.61F
BOOTLEG 11WNW    N/A     53  30  40 W35       29.56S
CANADIAN 6E      N/A     58  44  58 SW14      29.44F
CAPROCK CYN SP   N/A     61  32  33 SW35      29.55F
CHILDRESS 2NNE   N/A     63  39  41 SW20      29.56S
CLARENDON 2WSW   N/A     58  36  43 SW25      29.53S
CLAUDE 12SW      N/A     56  32  39 SW20G33   29.52S
DIMMITT 2NE      N/A     56  29  36 W40G53    29.55F
FLOYDADA 2NNE    N/A     60  31  34 SW31      29.61S
FRIONA 2NE       N/A     56  30  38 W33G46    29.58R
GOODLETT 3W      N/A     63  41  44 SW22      29.56S
HART 3N          N/A     56  30  36 SW35G46   29.57S
HEREFORD 2NW     N/A     55  30  37 SW36      29.54S
MCLEAN 1E        N/A     56  39  52 SW21      29.49S
MEMPHIS 1NE      N/A     62  37  40 SW25G35   29.53F
MULESHOE 2SSW    N/A     58  28  32 W32G46    29.61R
OLTON 6S         N/A     58  28  30 SW32G43   29.61S
PALO DURO SP     N/A     57  32  38 W16       29.53F
PAMPA 2E         N/A     56  37  48 SW18G31   29.48F
PLAINVIEW 1S     N/A     59  29  31 SW25G38   29.58F
SILVERTON 7ESE   N/A     60  29  30 SW40G52   29.55F
TULIA 2ENE       N/A     58  31  35 SW26G39   29.56S
TURKEY 2WSW      N/A     61  36  40 SW37      29.54R
UMBARGER 3NNE    N/A     56  33  41 SW28      29.52F
$$

TXZ033>036-039>041-045>048-211600
TEXAS TECH WEST TEXAS MESONET/SOUTH PLAINS

CITY           SKY/WX    TMP DP  RH WIND       PRES   REMARKS
AIKEN 3WSW       N/A     60  29  30 W36       29.60F
ANDREWS 2NE      N/A     64  22  20 W17G29    29.76S
ANTON 6SSW       N/A     61  24  24 SW36      29.64S
BROWNFIELD 2S    N/A     63  23  22 W28       29.69S
DENVR CTY 7WNW   N/A     60  21  22 W26       29.72R
GAIL 2ESE        N/A     64  32  30 SW21G30   29.70F
LAMESA 2SE       N/A     61  31  32 W22       29.73S
LUBBOCK 3WNW     N/A     61  25  25 W25G37    29.66S
MORTON 1ENE      N/A     60  23  24 W31       29.65S
ODONNELL 1N      N/A     61  26  26 SW26      29.69F
PLAINS 3N        N/A     60  23  24 W35G47    29.69S
RALLS 1SE        N/A     60  31  33 W25       29.65S
REESE CENTER     N/A     60  26  27 W29       29.65R
SEAGRAVES 1SW    N/A     62  24  23 W30G40    29.70F
SEMINOLE 2NNE    N/A     61  23  22 W25       29.72F
SLATON 2NE       N/A     60  30  31 SW28G38   29.67S
SNYDER 3E        N/A     64  33  32 SW17G30   29.70F
SUNDOWN 8SW      N/A     61  23  23 W29G38    29.68R
TAHOKA 3NNE      N/A     61  32  33 W21       29.68F
WOLFFORTH 6SSW   N/A     62  25  24 SW31      29.67S
$$

TXZ031-032-036>038-042>044-211600-
TEXAS TECH WEST TEXAS MESONET/ROLLING PLAINS

CITY           SKY/WX    TMP DP  RH WIND       PRES   REMARKS
ASPERMONT 3NE    N/A     66  40  38 SW20      29.65F
FLUVANNA 3WNW    N/A     61  35  38 SW25      29.69F
GRAHAM 5SSW      N/A     60  33  35 SW18G28   29.68S
GUTHRIE 10WSW    N/A     64  36  35 SW25      29.62S
HASKELL 1NW      N/A     65  43  45 SW13      29.65F
JAYTON 1SSE      N/A     65  36  34 SW21G35   29.65F
KNOX CITY 3NW    N/A     66  41  39 SW20G30   29.64F
LK A HENRY 1NW   N/A     63  34  33 W18       29.67S
NORTHFIELD 1S    N/A     65  34  31 SW24G41   29.56S
ODELL 4ENE       N/A     63  47  56 SW23      29.57S
PADUCAH 10SW     N/A     63  39  41 SW22G32   29.58F
POST 1NE         N/A     63  31  29 SW20G31   29.66F
RRING SPRGS 3N   N/A     61  35  37 SW31G43   29.58F
SEYMOUR 3NW      N/A     64  48  56 SW18      29.62S
SPUR 1W          N/A     63  34  33 W20       29.63S
WEINERT 2NNE     N/A     65  42  43 SW17      29.65S
WHITE RVR 6NE    N/A     61  32  33 SW25G37   29.63S
$$

TXZ052-054-060>062-072-078-127-140-154-169-211600-
TEXAS TECH WEST TEXAS MESONET/PERMIAN BASIN/
CONCHO VALLEY/BIG COUNTRY/EDWARDS PLATEAU

CITY           SKY/WX    TMP DP  RH WIND       PRES   REMARKS
COYANOSA 2N      N/A     66  26  22 W20       29.82S
JUNCTION 1SSW    N/A     72  46  39 NW8       29.80F
MERTZON 3NNE     N/A     67  41  38 SW10      29.79S
SAN ANGELO 7NW   N/A     68  38  33 W12       29.76F
STRLNG CT 4WSW   N/A     67  33  28 SW16      29.77S
ST LAWRNCE 5SW   N/A     63  36  36 W23       29.78S
SWEETWATR 11SW   N/A     64  39  40 W20       29.74F
WALL 1E          N/A     68  43  40 W16       29.78S
$$

TXZ055-058-074-075-080-082-211600-
TEXAS TECH WEST TEXAS MESONET/FAR WEST/SOUTHWEST MOUNTAINS/TRANS PECOS

CITY           SKY/WX    TMP DP  RH WIND       PRES   REMARKS
PRSMN GAP BBNP   N/A     70  26  19 W7        29.85F
GUADLPE MTN NP   N/A     53  22  30 W18G28    29.86F
$$




USA.gov is the U.S. government's official web portal to all federal, state and local government web resources and services.